Flag Weather past 2 weeks in Langley, British Columbia, Canada

Now
54 °F

Cool.


Feels Like: 54 °F
Forecast: 50 / 56 °F
Wind: 3 mph from East

Location: P. Meadows Coastal Station

Current Time: Oct 30, 2014 at 4:12:05 PM

Latest Report: Oct 30, 2014 at 3:00 PM


Visibility: N/A

Pressure: 29.75 "Hg

Humidity: 97%

Dew point: 53 °F

Location of LangleyLocation

Historic Weather in Langley — Graph

°F

Langley temperature yesterday

Maximum temperature yesterday: 63 °F (at 4:00 PM)
Minimum temperature yesterday: 51 °F (at 11:00 PM)
Average temperature yesterday: 57 °F

Past Weeks' High & Low Weather Summary

 TemperatureHumidityPressure
High71 °F (Oct 19, 1:00 PM)100% (Oct 15, 11:00 PM)30.15 "Hg (Oct 15, 11:00 PM)
Low41 °F (Oct 26, 6:00 AM)54% (Oct 19, 1:00 PM)29.25 "Hg (Oct 25, 8:00 PM)
Average54 °F89%29.83 "Hg
* Reported Oct 15 3:00 PM — Oct 30 3:00 PM, Langley, Weather by CustomWeather, © 2014

Note: Actual official high and low records may vary slightly from our data, if they occured in-between our weather recording intervals... More about our weather records

Advertising

Langley weather history for previous 24 hours

 ConditionsComfort  
Time TempWeatherWind HumidityBarometerVisibility
3:00 PM
Oct 30
54 °FCool.3 mph97%29.75 "HgN/A
2:00 PM53 °FCool.3 mph96%29.78 "HgN/A
1:00 PM54 °FCool.3 mph95%29.81 "HgN/A
12:00 PM53 °FCool.5 mph93%29.83 "HgN/A
11:00 AM53 °FCool.5 mph92%29.83 "HgN/A
10:00 AM51 °FCool.6 mph94%29.84 "HgN/A
9:00 AM51 °FCool.5 mph93%29.85 "HgN/A
8:00 AM53 °FCool.1 mph86%29.86 "HgN/A
7:00 AM51 °FCool.2 mph90%29.88 "HgN/A
6:00 AM51 °FCool.2 mph89%29.90 "HgN/A
5:00 AM52 °FCool.2 mph90%29.94 "HgN/A
4:00 AM52 °FCool.1 mph89%29.97 "HgN/A
3:00 AM51 °FCool.2 mph92%29.99 "HgN/A
2:00 AM51 °FCool.1 mph92%30.00 "HgN/A
1:00 AM52 °FCool.1 mph92%30.03 "HgN/A
12:00 AM51 °FCool.2 mph93%30.04 "HgN/A
11:00 PM
Oct 29
51 °FCool.1 mph94%30.06 "HgN/A
10:00 PM51 °FCool.1 mph94%30.06 "HgN/A
9:00 PM53 °FCool.No wind90%30.07 "HgN/A
8:00 PM55 °FCool.7 mph88%30.09 "HgN/A
7:00 PM56 °FCool.5 mph88%30.10 "HgN/A
6:00 PM58 °FCool.6 mph81%30.10 "HgN/A
5:00 PM59 °FCool.6 mph75%30.11 "HgN/A
4:00 PM63 °FMild.2 mph60%30.11 "HgN/A
Weather by CustomWeather, © 2014

See weather overviewHow to use our weather pages